Weather History for Brownsville, TX

Change the Weather History Date:

Saturday, February 15, 2014

  Actual Average Record
Temperature  
Mean Temperature 67 °F 64 °F  
Max Temperature 80 °F 74 °F 92 °F (1990)
Min Temperature 54 °F 55 °F 25 °F (1895)
Degree Days  
Heating Degree Days 0 4  
Month to date heating degree days 148 67  
Since 1 July heating degree days 706 466  
Cooling Degree Days 2 3  
Month to date cooling degree days 14 40  
Year to date cooling degree days 35 99  
Growing Degree Days 18 (Base 50)    
Moisture  
Dew Point 60 °F    
Average Humidity 79    
Maximum Humidity 100    
Minimum Humidity 58    
Precipitation  
Precipitation 0.00 in 0.04 in 3.16 in (1923)
Month to date precipitation 0.08 0.67  
Year to date precipitation 0.76 1.94  
Sea Level Pressure  
Sea Level Pressure 30.08 in    
Wind  
Wind Speed 6 mph (SE)    
Max Wind Speed 17 mph    
Max Gust Speed 21 mph    
Visibility 6 miles    
Events Fog    
T = Trace of Precipitation, MM = Missing Value Source: NWS Daily Summary

Daily Weather History Graph

Daily Weather History Graph

Search for Another Location

Airport:

Trip Planner

Search our weather history database for the weather conditions in past years. The results will help you decide how hot, cold, wet, or windy it might be!

Date:

Astronomy

Feb. 15, 2014 Rise Set
Actual Time 7:04 AM CST 6:23 PM CST
Civil Twilight 6:41 AM CST 6:46 PM CST
Nautical Twilight 6:14 AM CST 7:13 PM CST
Astronomical Twilight 5:47 AM CST 7:40 PM CST
Moon 7:13 PM CST (2/15) 7:12 AM CST (2/15)
Length of Visible Light 12h 05m
Length of Day
11h 18m
Waxing Gibbous, 99% of the Moon is Illuminated
Feb 15
Waxing Gibbous
Feb 22
Last Quarter
Mar 1
New
Mar 8
First Quarter
Mar 16
Full

Hourly Weather History & Observations

Time (CST) Temp. Dew Point Humidity Pressure Visibility Wind Dir Wind Speed Gust Speed Precip Events Conditions
12:53 AM 57.0 °F 55.9 °F 96% 30.01 in 9.0 mi Calm Calm - N/A   Clear
1:53 AM 57.0 °F 55.9 °F 96% 30.02 in 6.0 mi East 3.5 mph - N/A   Clear
2:25 AM 55.4 °F 55.4 °F 100% 30.03 in 2.0 mi ENE 4.6 mph - N/A   Partly Cloudy
2:35 AM 55.4 °F 55.4 °F 100% 30.03 in 6.0 mi NNE 5.8 mph - N/A   Partly Cloudy
2:53 AM 55.0 °F 55.0 °F 100% 30.03 in 5.0 mi North 3.5 mph - N/A   Partly Cloudy
3:16 AM 55.4 °F 55.4 °F 100% 30.03 in 2.5 mi Calm Calm - N/A   Mostly Cloudy
3:25 AM 55.4 °F 55.4 °F 100% 30.04 in 0.8 mi Calm Calm - N/A   Mist
3:36 AM 55.4 °F 55.4 °F 100% 30.04 in 0.5 mi Calm Calm - N/A Fog Fog
3:53 AM 55.9 °F 55.0 °F 97% 30.04 in 0.5 mi NNE 3.5 mph - N/A Fog Fog
4:32 AM 55.4 °F 55.4 °F 100% 30.04 in 0.2 mi Calm Calm - N/A Fog Fog
4:50 AM 57.2 °F 55.4 °F 94% 30.05 in 0.5 mi NNE 3.5 mph - N/A Fog Fog
4:53 AM 57.0 °F 57.0 °F 100% 30.05 in 0.5 mi Calm Calm - N/A Fog Fog
5:51 AM 57.2 °F 57.2 °F 100% 30.06 in 0.8 mi Calm Calm - N/A   Mist
5:53 AM 57.9 °F 57.0 °F 97% 30.06 in 0.8 mi Calm Calm - N/A   Mist
6:53 AM 57.0 °F 57.0 °F 100% 30.09 in 0.8 mi Calm Calm - N/A   Mist
7:14 AM 57.2 °F 57.2 °F 100% 30.10 in 0.2 mi Calm Calm - N/A Fog Fog
7:53 AM 59.0 °F 57.9 °F 96% 30.11 in 0.2 mi Calm Calm - N/A Fog Fog
8:02 AM 59.0 °F 59.0 °F 100% 30.11 in 0.2 mi Calm Calm - N/A Fog Fog
8:49 AM 62.6 °F 60.8 °F 94% 30.13 in 0.5 mi Calm Calm - N/A Fog Fog
8:53 AM 62.1 °F 61.0 °F 96% 30.13 in 0.5 mi Calm Calm - N/A Fog Fog
9:53 AM 64.9 °F 64.9 °F 100% 30.16 in 2.0 mi East 3.5 mph - N/A   Overcast
10:04 AM 64.4 °F 64.4 °F 100% 30.16 in 5.0 mi East 4.6 mph - N/A   Overcast
10:39 AM 69.8 °F 66.2 °F 88% 30.15 in 10.0 mi Calm Calm - N/A   Partly Cloudy
10:53 AM 71.1 °F 64.0 °F 78% 30.14 in 10.0 mi SSE 3.5 mph - N/A   Partly Cloudy
11:12 AM 71.6 °F 64.4 °F 78% 30.14 in 10.0 mi SE 9.2 mph - N/A   Mostly Cloudy
11:53 AM 75.9 °F 63.0 °F 64% 30.13 in 10.0 mi SSE 10.4 mph - N/A   Mostly Cloudy
12:08 PM 77.0 °F 62.6 °F 61% 30.13 in 10.0 mi SSE 13.8 mph 18.4 mph N/A   Mostly Cloudy
12:21 PM 75.2 °F 62.6 °F 65% 30.12 in 10.0 mi SSE 12.7 mph - N/A   Scattered Clouds
12:49 PM 75.2 °F 62.6 °F 65% 30.11 in 10.0 mi SSE 10.4 mph - N/A   Mostly Cloudy
12:53 PM 75.9 °F 62.1 °F 62% 30.11 in 10.0 mi SSE 11.5 mph - N/A   Mostly Cloudy
1:27 PM 78.8 °F 62.6 °F 57% 30.09 in 10.0 mi SSE 15.0 mph 19.6 mph N/A   Mostly Cloudy
1:53 PM 78.1 °F 62.1 °F 58% 30.08 in 10.0 mi SE 13.8 mph - N/A   Mostly Cloudy
2:53 PM 78.1 °F 62.1 °F 58% 30.06 in 10.0 mi SE 10.4 mph - N/A   Scattered Clouds
3:53 PM 77.0 °F 62.1 °F 60% 30.05 in 10.0 mi SE 15.0 mph - N/A   Partly Cloudy
4:53 PM 75.0 °F 63.0 °F 66% 30.04 in 10.0 mi SSE 13.8 mph - N/A   Partly Cloudy
5:53 PM 72.0 °F 63.0 °F 73% 30.05 in 10.0 mi SE 11.5 mph - N/A   Scattered Clouds
6:53 PM 66.9 °F 64.0 °F 90% 30.05 in 10.0 mi SE 8.1 mph - N/A   Clear
7:53 PM 64.0 °F 62.1 °F 93% 30.06 in 10.0 mi SE 4.6 mph - N/A   Partly Cloudy
8:08 PM 64.4 °F 62.6 °F 94% 30.06 in 10.0 mi SE 4.6 mph - N/A   Mostly Cloudy
8:53 PM 64.9 °F 64.0 °F 97% 30.07 in 10.0 mi SE 5.8 mph - N/A   Overcast
9:53 PM 66.0 °F 64.0 °F 93% 30.08 in 10.0 mi Calm Calm - N/A   Overcast
10:53 PM 66.0 °F 64.0 °F 93% 30.08 in 10.0 mi SSE 5.8 mph - N/A   Overcast
11:53 PM 66.0 °F 64.0 °F 93% 30.06 in 10.0 mi SSE 9.2 mph - N/A   Overcast